Year,Month,Day,Hour,Minute,Value (Times are PST for temperature in C)
2016,05,07,00,00,13.20
2016,05,07,00,01,13.20
2016,05,07,00,02,13.20
2016,05,07,00,03,13.10
2016,05,07,00,04,13.10
2016,05,07,00,05,13.10
2016,05,07,00,06,13.10
2016,05,07,00,07,13.10
2016,05,07,00,08,13.10
2016,05,07,00,09,13.00
2016,05,07,00,10,13.00
2016,05,07,00,11,13.00
2016,05,07,00,12,13.00
2016,05,07,00,13,12.90
2016,05,07,00,14,12.90
2016,05,07,00,15,12.90
2016,05,07,00,16,12.90
2016,05,07,00,17,12.90
2016,05,07,00,18,12.80
2016,05,07,00,19,12.80
2016,05,07,00,20,12.80
2016,05,07,00,21,12.80
2016,05,07,00,22,12.80
2016,05,07,00,23,12.80
2016,05,07,00,24,12.80
2016,05,07,00,25,12.80
2016,05,07,00,26,12.80
2016,05,07,00,27,12.80
2016,05,07,00,28,12.80
2016,05,07,00,29,12.80
2016,05,07,00,30,12.80
2016,05,07,00,31,12.80
2016,05,07,00,32,12.80
2016,05,07,00,33,12.80
2016,05,07,00,34,12.70
2016,05,07,00,35,12.70
2016,05,07,00,36,12.70
2016,05,07,00,37,12.70
2016,05,07,00,38,12.70
2016,05,07,00,39,12.70
2016,05,07,00,40,12.60
2016,05,07,00,41,12.60
2016,05,07,00,42,12.60
2016,05,07,00,43,12.60
2016,05,07,00,44,12.60
2016,05,07,00,45,12.60
2016,05,07,00,46,12.50
2016,05,07,00,47,12.50
2016,05,07,00,48,12.50
2016,05,07,00,49,12.50
2016,05,07,00,50,12.40
2016,05,07,00,51,12.40
2016,05,07,00,52,12.40
2016,05,07,00,53,12.40
2016,05,07,00,54,12.40
2016,05,07,00,55,12.40
2016,05,07,00,56,12.40
2016,05,07,00,57,12.40
2016,05,07,00,58,12.40
2016,05,07,00,59,12.40
2016,05,07,01,00,12.40
2016,05,07,01,01,12.40
2016,05,07,01,02,12.40
2016,05,07,01,03,12.40
2016,05,07,01,04,12.40
2016,05,07,01,05,12.40
2016,05,07,01,06,12.40
2016,05,07,01,07,12.40
2016,05,07,01,08,12.40
2016,05,07,01,09,12.40
2016,05,07,01,10,12.30
2016,05,07,01,11,12.30
2016,05,07,01,12,12.30
2016,05,07,01,13,12.30
2016,05,07,01,14,12.30
2016,05,07,01,15,12.30
2016,05,07,01,16,12.20
2016,05,07,01,17,12.20
2016,05,07,01,18,12.20
2016,05,07,01,19,12.20
2016,05,07,01,20,12.10
2016,05,07,01,21,12.10
2016,05,07,01,22,12.10
2016,05,07,01,23,12.10
2016,05,07,01,24,12.10
2016,05,07,01,25,12.00
2016,05,07,01,26,12.00
2016,05,07,01,27,12.00
2016,05,07,01,28,12.00
2016,05,07,01,29,12.00
2016,05,07,01,30,11.90
2016,05,07,01,31,11.90
2016,05,07,01,32,12.00
2016,05,07,01,33,12.00
2016,05,07,01,34,12.00
2016,05,07,01,35,12.00
2016,05,07,01,36,12.00
2016,05,07,01,37,12.00
2016,05,07,01,38,12.00
2016,05,07,01,39,12.00
2016,05,07,01,40,12.00
2016,05,07,01,41,12.00
2016,05,07,01,42,12.00
2016,05,07,01,43,12.00
2016,05,07,01,44,12.00
2016,05,07,01,45,12.00
2016,05,07,01,46,12.00
2016,05,07,01,47,12.00
2016,05,07,01,48,11.90
2016,05,07,01,49,11.90
2016,05,07,01,50,11.90
2016,05,07,01,51,11.90
2016,05,07,01,52,11.90
2016,05,07,01,53,11.90
2016,05,07,01,54,11.90
2016,05,07,01,55,11.90
2016,05,07,01,56,11.90
2016,05,07,01,57,11.90
2016,05,07,01,58,11.90
2016,05,07,01,59,11.90
2016,05,07,02,00,11.80
2016,05,07,02,01,11.80
2016,05,07,02,02,11.80
2016,05,07,02,03,11.80
2016,05,07,02,04,11.80
2016,05,07,02,05,11.80
2016,05,07,02,06,11.70
2016,05,07,02,07,11.70
2016,05,07,02,08,11.70
2016,05,07,02,09,11.70
2016,05,07,02,10,11.70
2016,05,07,02,11,11.70
2016,05,07,02,12,11.70
2016,05,07,02,13,11.70
2016,05,07,02,14,11.70
2016,05,07,02,15,11.70
2016,05,07,02,16,11.70
2016,05,07,02,17,11.70
2016,05,07,02,18,11.70
2016,05,07,02,19,11.70
2016,05,07,02,20,11.70
2016,05,07,02,21,11.70
2016,05,07,02,22,11.70
2016,05,07,02,23,11.70
2016,05,07,02,24,11.60
2016,05,07,02,25,11.60
2016,05,07,02,26,11.60
2016,05,07,02,27,11.60
2016,05,07,02,28,11.60
2016,05,07,02,29,11.60
2016,05,07,02,30,11.60
2016,05,07,02,31,11.50
2016,05,07,02,32,11.60
2016,05,07,02,33,11.50
2016,05,07,02,34,11.50
2016,05,07,02,35,11.50
2016,05,07,02,36,11.50
2016,05,07,02,37,11.50
2016,05,07,02,38,11.50
2016,05,07,02,39,11.40
2016,05,07,02,40,11.40
2016,05,07,02,41,11.40
2016,05,07,02,42,11.40
2016,05,07,02,43,11.40
2016,05,07,02,44,11.40
2016,05,07,02,45,11.30
2016,05,07,02,46,11.30
2016,05,07,02,47,11.30
2016,05,07,02,48,11.30
2016,05,07,02,49,11.30
2016,05,07,02,50,11.30
2016,05,07,02,51,11.30
2016,05,07,02,52,11.30
2016,05,07,02,53,11.30
2016,05,07,02,54,11.30
2016,05,07,02,55,11.20
2016,05,07,02,56,11.20
2016,05,07,02,57,11.20
2016,05,07,02,58,11.20
2016,05,07,02,59,11.20
2016,05,07,03,00,11.20
2016,05,07,03,01,11.20
2016,05,07,03,02,11.20
2016,05,07,03,03,11.20
2016,05,07,03,04,11.10
2016,05,07,03,05,11.10
2016,05,07,03,06,11.10
2016,05,07,03,07,11.10
2016,05,07,03,08,11.10
2016,05,07,03,09,11.10
2016,05,07,03,10,11.10
2016,05,07,03,11,11.10
2016,05,07,03,12,11.10
2016,05,07,03,13,11.10
2016,05,07,03,14,11.10
2016,05,07,03,15,11.10
2016,05,07,03,16,11.10
2016,05,07,03,17,11.10
2016,05,07,03,18,11.00
2016,05,07,03,19,11.00
2016,05,07,03,20,11.00
2016,05,07,03,21,11.00
2016,05,07,03,22,10.90
2016,05,07,03,23,10.90
2016,05,07,03,24,10.90
2016,05,07,03,25,10.90
2016,05,07,03,26,10.90
2016,05,07,03,27,10.90
2016,05,07,03,28,10.90
2016,05,07,03,29,10.90
2016,05,07,03,30,10.80
2016,05,07,03,31,10.80
2016,05,07,03,32,10.80
2016,05,07,03,33,10.80
2016,05,07,03,34,10.80
2016,05,07,03,35,10.70
2016,05,07,03,36,10.70
2016,05,07,03,37,10.70
2016,05,07,03,38,10.70
2016,05,07,03,39,10.70
2016,05,07,03,40,10.70
2016,05,07,03,41,10.70
2016,05,07,03,42,10.70
2016,05,07,03,43,10.60
2016,05,07,03,44,10.60
2016,05,07,03,45,10.60
2016,05,07,03,46,10.60
2016,05,07,03,47,10.60
2016,05,07,03,48,10.50
2016,05,07,03,49,10.50
2016,05,07,03,50,10.50
2016,05,07,03,51,10.50
2016,05,07,03,52,10.50
2016,05,07,03,53,10.40
2016,05,07,03,54,10.40
2016,05,07,03,55,10.40
2016,05,07,03,56,10.40
2016,05,07,03,57,10.40
2016,05,07,03,58,10.40
2016,05,07,03,59,10.40
2016,05,07,04,00,10.40
2016,05,07,04,01,10.30
2016,05,07,04,02,10.30
2016,05,07,04,03,10.30
2016,05,07,04,04,10.30
2016,05,07,04,05,10.30
2016,05,07,04,06,10.30
2016,05,07,04,07,10.30
2016,05,07,04,08,10.30
2016,05,07,04,09,10.40
2016,05,07,04,10,10.40
2016,05,07,04,11,10.40
2016,05,07,04,12,10.40
2016,05,07,04,13,10.40
2016,05,07,04,14,10.40
2016,05,07,04,15,10.30
2016,05,07,04,16,10.30
2016,05,07,04,17,10.30
2016,05,07,04,18,10.30
2016,05,07,04,19,10.30
2016,05,07,04,20,10.30
2016,05,07,04,21,10.30
2016,05,07,04,22,10.30
2016,05,07,04,23,10.30
2016,05,07,04,24,10.30
2016,05,07,04,25,10.30
2016,05,07,04,26,10.20
2016,05,07,04,27,10.20
2016,05,07,04,28,10.20
2016,05,07,04,29,10.20
2016,05,07,04,30,10.20
2016,05,07,04,31,10.20
2016,05,07,04,32,10.20
2016,05,07,04,33,10.20
2016,05,07,04,34,10.20
2016,05,07,04,35,10.20
2016,05,07,04,36,10.10
2016,05,07,04,37,10.10
2016,05,07,04,38,10.10
2016,05,07,04,39,10.10
2016,05,07,04,40,10.10
2016,05,07,04,41,10.10
2016,05,07,04,42,10.10
2016,05,07,04,43,10.10
2016,05,07,04,44,10.10
2016,05,07,04,45,10.10
2016,05,07,04,46,10.10
2016,05,07,04,47,10.00
2016,05,07,04,48,10.00
2016,05,07,04,49,10.00
2016,05,07,04,50,10.00
2016,05,07,04,51,10.00
2016,05,07,04,52,10.00
2016,05,07,04,53,10.00
2016,05,07,04,54,10.00
2016,05,07,04,55,9.90
2016,05,07,04,56,9.90
2016,05,07,04,57,9.90
2016,05,07,04,58,9.90
2016,05,07,04,59,9.90
2016,05,07,05,00,9.90
2016,05,07,05,01,9.90
2016,05,07,05,02,9.90
2016,05,07,05,03,9.90
2016,05,07,05,04,9.90
2016,05,07,05,05,9.90
2016,05,07,05,06,9.90
2016,05,07,05,07,9.90
2016,05,07,05,08,9.90
2016,05,07,05,09,9.80
2016,05,07,05,10,9.80
2016,05,07,05,11,9.80
2016,05,07,05,12,9.80
2016,05,07,05,13,9.80
2016,05,07,05,14,9.80
2016,05,07,05,15,9.70
2016,05,07,05,16,9.70
2016,05,07,05,17,9.70
2016,05,07,05,18,9.70
2016,05,07,05,19,9.60
2016,05,07,05,20,9.60
2016,05,07,05,21,9.60
2016,05,07,05,22,9.60
2016,05,07,05,23,9.60
2016,05,07,05,24,9.50
2016,05,07,05,25,9.50
2016,05,07,05,26,9.50
2016,05,07,05,27,9.40
2016,05,07,05,28,9.40
2016,05,07,05,29,9.40
2016,05,07,05,30,9.40
2016,05,07,05,31,9.40
2016,05,07,05,32,9.30
2016,05,07,05,33,9.30
2016,05,07,05,34,9.30
2016,05,07,05,35,9.30
2016,05,07,05,36,9.30
2016,05,07,05,37,9.30
2016,05,07,05,38,9.30
2016,05,07,05,39,9.30
2016,05,07,05,40,9.30
2016,05,07,05,41,9.30
2016,05,07,05,42,9.30
2016,05,07,05,43,9.30
2016,05,07,05,44,9.30
2016,05,07,05,45,9.30
2016,05,07,05,46,9.40
2016,05,07,05,47,9.40
2016,05,07,05,48,9.40
2016,05,07,05,49,9.40
2016,05,07,05,50,9.40
2016,05,07,05,51,9.40
2016,05,07,05,52,9.40
2016,05,07,05,53,9.40
2016,05,07,05,54,9.40
2016,05,07,05,55,9.40
2016,05,07,05,56,9.40
2016,05,07,05,57,9.40
2016,05,07,05,58,9.40
2016,05,07,05,59,9.40
2016,05,07,06,00,9.40
2016,05,07,06,01,9.40
2016,05,07,06,02,9.40
2016,05,07,06,03,9.30
2016,05,07,06,04,9.30
2016,05,07,06,05,9.30
2016,05,07,06,06,9.30
2016,05,07,06,07,9.30
2016,05,07,06,08,9.30
2016,05,07,06,09,9.30
2016,05,07,06,10,9.30
2016,05,07,06,11,9.30
2016,05,07,06,12,9.30
2016,05,07,06,13,9.30
2016,05,07,06,14,9.30
2016,05,07,06,15,9.30
2016,05,07,06,16,9.30
2016,05,07,06,17,9.30
2016,05,07,06,18,9.30
2016,05,07,06,19,9.30
2016,05,07,06,20,9.30
2016,05,07,06,21,9.40
2016,05,07,06,22,9.40
2016,05,07,06,23,9.40
2016,05,07,06,24,9.50
2016,05,07,06,25,9.50
2016,05,07,06,26,9.50
2016,05,07,06,27,9.50
2016,05,07,06,28,9.50
2016,05,07,06,29,9.50
2016,05,07,06,30,9.60
2016,05,07,06,31,9.60
2016,05,07,06,32,9.60
2016,05,07,06,33,9.60
2016,05,07,06,34,9.70
2016,05,07,06,35,9.70
2016,05,07,06,36,9.80
2016,05,07,06,37,9.90
2016,05,07,06,38,10.00
2016,05,07,06,39,10.10
2016,05,07,06,40,10.10
2016,05,07,06,41,10.20
2016,05,07,06,42,10.30
2016,05,07,06,43,10.40
2016,05,07,06,44,10.40
2016,05,07,06,45,10.50
2016,05,07,06,46,10.60
2016,05,07,06,47,10.70
2016,05,07,06,48,10.80
2016,05,07,06,49,10.90
2016,05,07,06,50,11.00
2016,05,07,06,51,11.20
2016,05,07,06,52,11.30
2016,05,07,06,53,11.30
2016,05,07,06,54,11.40
2016,05,07,06,55,11.50
2016,05,07,06,56,11.60
2016,05,07,06,57,11.70
2016,05,07,06,58,11.90
2016,05,07,06,59,12.00
2016,05,07,07,00,12.00
2016,05,07,07,01,12.10
2016,05,07,07,02,12.10
2016,05,07,07,03,12.10
2016,05,07,07,04,12.20
2016,05,07,07,05,12.30
2016,05,07,07,06,12.30
2016,05,07,07,07,12.40
2016,05,07,07,08,12.50
2016,05,07,07,09,12.60
2016,05,07,07,10,12.70
2016,05,07,07,11,12.80
2016,05,07,07,12,12.80
2016,05,07,07,13,12.90
2016,05,07,07,14,13.00
2016,05,07,07,15,13.00
2016,05,07,07,16,13.10
2016,05,07,07,17,13.20
2016,05,07,07,18,13.30
2016,05,07,07,19,13.50
2016,05,07,07,20,13.60
2016,05,07,07,21,13.60
2016,05,07,07,22,13.70
2016,05,07,07,23,13.70
2016,05,07,07,24,13.70
2016,05,07,07,25,13.70
2016,05,07,07,26,13.80
2016,05,07,07,27,13.80
2016,05,07,07,28,13.80
2016,05,07,07,29,13.80
2016,05,07,07,30,13.90
2016,05,07,07,31,13.90
2016,05,07,07,32,14.00
2016,05,07,07,33,14.10
2016,05,07,07,34,14.20
2016,05,07,07,35,14.30
2016,05,07,07,36,14.30
2016,05,07,07,37,14.50
2016,05,07,07,38,14.60
2016,05,07,07,39,14.70
2016,05,07,07,40,14.80
2016,05,07,07,41,15.00
2016,05,07,07,42,15.20
2016,05,07,07,43,15.30
2016,05,07,07,44,15.50
2016,05,07,07,45,15.70
2016,05,07,07,46,15.80
2016,05,07,07,47,16.00
2016,05,07,07,48,16.20
2016,05,07,07,49,16.30
2016,05,07,07,50,16.40
2016,05,07,07,51,16.50
2016,05,07,07,52,16.60
2016,05,07,07,53,16.70
2016,05,07,07,54,16.80
2016,05,07,07,55,17.00
2016,05,07,07,56,17.10
2016,05,07,07,57,17.20
2016,05,07,07,58,17.30
2016,05,07,07,59,17.40
2016,05,07,08,00,17.50
2016,05,07,08,01,17.50
2016,05,07,08,02,17.60
2016,05,07,08,03,17.70
2016,05,07,08,04,17.70
2016,05,07,08,05,17.70
2016,05,07,08,06,17.80
2016,05,07,08,07,17.80
2016,05,07,08,08,17.80
2016,05,07,08,09,17.80
2016,05,07,08,10,17.80
2016,05,07,08,11,17.90
2016,05,07,08,12,17.90
2016,05,07,08,13,18.00
2016,05,07,08,14,18.10
2016,05,07,08,15,18.10
2016,05,07,08,16,18.20
2016,05,07,08,17,18.20
2016,05,07,08,18,18.30
2016,05,07,08,19,18.30
2016,05,07,08,20,18.30
2016,05,07,08,21,18.40
2016,05,07,08,22,18.50
2016,05,07,08,23,18.50
2016,05,07,08,24,18.60
2016,05,07,08,25,18.50
2016,05,07,08,26,18.50
2016,05,07,08,27,18.50
2016,05,07,08,28,18.40
2016,05,07,08,29,18.40
2016,05,07,08,30,18.40
2016,05,07,08,31,18.30
2016,05,07,08,32,18.30
2016,05,07,08,33,18.30
2016,05,07,08,34,18.30
2016,05,07,08,35,18.30
2016,05,07,08,36,18.30
2016,05,07,08,37,18.30
2016,05,07,08,38,18.30
2016,05,07,08,39,18.40
2016,05,07,08,40,18.40
2016,05,07,08,41,18.40
2016,05,07,08,42,18.50
2016,05,07,08,43,18.60
2016,05,07,08,44,18.60
2016,05,07,08,45,18.60
2016,05,07,08,46,18.70
2016,05,07,08,47,18.70
2016,05,07,08,48,18.70
2016,05,07,08,49,18.80
2016,05,07,08,50,18.80
2016,05,07,08,51,18.90
2016,05,07,08,52,19.00
2016,05,07,08,53,19.10
2016,05,07,08,54,19.20
2016,05,07,08,55,19.30
2016,05,07,08,56,19.30
2016,05,07,08,57,19.30
2016,05,07,08,58,19.30
2016,05,07,08,59,19.30
2016,05,07,09,00,19.30
2016,05,07,09,01,19.30
2016,05,07,09,02,19.30
2016,05,07,09,03,19.30
2016,05,07,09,04,19.30
2016,05,07,09,05,19.30
2016,05,07,09,06,19.30
2016,05,07,09,07,19.30
2016,05,07,09,08,19.30
2016,05,07,09,09,19.30
2016,05,07,09,10,19.30
2016,05,07,09,11,19.40
2016,05,07,09,12,19.40
2016,05,07,09,13,19.50
2016,05,07,09,14,19.50
2016,05,07,09,15,19.60
2016,05,07,09,16,19.70
2016,05,07,09,17,19.80
2016,05,07,09,18,19.90
2016,05,07,09,19,20.00
2016,05,07,09,20,20.10
2016,05,07,09,21,20.20
2016,05,07,09,22,20.30
2016,05,07,09,23,20.40
2016,05,07,09,24,20.50
2016,05,07,09,25,20.60
2016,05,07,09,26,20.70
2016,05,07,09,27,20.70
2016,05,07,09,28,20.70
2016,05,07,09,29,20.80
2016,05,07,09,30,20.80
2016,05,07,09,31,20.70
2016,05,07,09,32,20.70
2016,05,07,09,33,20.60
2016,05,07,09,34,20.40
2016,05,07,09,35,20.30
2016,05,07,09,36,20.20
2016,05,07,09,37,20.20
2016,05,07,09,38,20.20
2016,05,07,09,39,20.20
2016,05,07,09,40,20.20
2016,05,07,09,41,20.30
2016,05,07,09,42,20.30
2016,05,07,09,43,20.30
2016,05,07,09,44,20.30
2016,05,07,09,45,20.20
2016,05,07,09,46,20.20
2016,05,07,09,47,20.30
2016,05,07,09,48,20.20
2016,05,07,09,49,20.20
2016,05,07,09,50,20.10
2016,05,07,09,51,20.10
2016,05,07,09,52,20.10
2016,05,07,09,53,20.10
2016,05,07,09,54,20.10
2016,05,07,09,55,20.10
2016,05,07,09,56,20.20
2016,05,07,09,57,20.30
2016,05,07,09,58,20.30
2016,05,07,09,59,20.30
2016,05,07,10,00,20.20
2016,05,07,10,01,20.20
2016,05,07,10,02,20.20
2016,05,07,10,03,20.20
2016,05,07,10,04,20.20
2016,05,07,10,05,20.30
2016,05,07,10,06,20.30
2016,05,07,10,07,20.40
2016,05,07,10,08,20.50
2016,05,07,10,09,20.60
2016,05,07,10,10,20.70
2016,05,07,10,11,20.70
2016,05,07,10,12,20.80
2016,05,07,10,13,20.80
2016,05,07,10,14,20.70
2016,05,07,10,15,20.70
2016,05,07,10,16,20.70
2016,05,07,10,17,20.60
2016,05,07,10,18,20.60
2016,05,07,10,19,20.40
2016,05,07,10,20,20.40
2016,05,07,10,21,20.30
2016,05,07,10,22,20.30
2016,05,07,10,23,20.40
2016,05,07,10,24,20.50
2016,05,07,10,25,20.50
2016,05,07,10,26,20.60
2016,05,07,10,27,20.70
2016,05,07,10,28,20.70
2016,05,07,10,29,20.80
2016,05,07,10,30,20.90
2016,05,07,10,31,20.90
2016,05,07,10,32,20.80
2016,05,07,10,33,20.80
2016,05,07,10,34,20.80
2016,05,07,10,35,20.90
2016,05,07,10,36,20.90
2016,05,07,10,37,20.90
2016,05,07,10,38,20.90
2016,05,07,10,39,20.80
2016,05,07,10,40,20.80
2016,05,07,10,41,20.90
2016,05,07,10,42,20.90
2016,05,07,10,43,20.90
2016,05,07,10,44,20.90
2016,05,07,10,45,21.00
2016,05,07,10,46,21.10
2016,05,07,10,47,21.10
2016,05,07,10,48,21.20
2016,05,07,10,49,21.30
2016,05,07,10,50,21.30
2016,05,07,10,51,21.40
2016,05,07,10,52,21.40
2016,05,07,10,53,21.50
2016,05,07,10,54,21.50
2016,05,07,10,55,21.40
2016,05,07,10,56,21.40
2016,05,07,10,57,21.40
2016,05,07,10,58,21.40
2016,05,07,10,59,21.30
2016,05,07,11,00,21.30
2016,05,07,11,01,21.20
2016,05,07,11,02,21.20
2016,05,07,11,03,21.20
2016,05,07,11,04,21.20
2016,05,07,11,05,21.30
2016,05,07,11,06,21.20
2016,05,07,11,07,21.20
2016,05,07,11,08,21.30
2016,05,07,11,09,21.40
2016,05,07,11,10,21.50
2016,05,07,11,11,21.50
2016,05,07,11,12,21.60
2016,05,07,11,13,21.60
2016,05,07,11,14,21.60
2016,05,07,11,15,21.60
2016,05,07,11,16,21.60
2016,05,07,11,17,21.50
2016,05,07,11,18,21.50
2016,05,07,11,19,21.40
2016,05,07,11,20,21.30
2016,05,07,11,21,21.30
2016,05,07,11,22,21.40
2016,05,07,11,23,21.40
2016,05,07,11,24,21.40
2016,05,07,11,25,21.40
2016,05,07,11,26,21.30
2016,05,07,11,27,21.20
2016,05,07,11,28,21.20
2016,05,07,11,29,21.20
2016,05,07,11,30,21.20
2016,05,07,11,31,21.20
2016,05,07,11,32,21.20
2016,05,07,11,33,21.10
2016,05,07,11,34,21.10
2016,05,07,11,35,21.10
2016,05,07,11,36,21.00
2016,05,07,11,37,20.90
2016,05,07,11,38,20.90
2016,05,07,11,39,20.90
2016,05,07,11,40,20.80
2016,05,07,11,41,20.70
2016,05,07,11,42,20.70
2016,05,07,11,43,20.60
2016,05,07,11,44,20.50
2016,05,07,11,45,20.50
2016,05,07,11,46,20.40
2016,05,07,11,47,20.40
2016,05,07,11,48,20.40
2016,05,07,11,49,20.40
2016,05,07,11,50,20.50
2016,05,07,11,51,20.60
2016,05,07,11,52,20.80
2016,05,07,11,53,20.80
2016,05,07,11,54,20.80
2016,05,07,11,55,20.80
2016,05,07,11,56,20.80
2016,05,07,11,57,20.80
2016,05,07,11,58,20.80
2016,05,07,11,59,20.80
2016,05,07,12,00,20.90
2016,05,07,12,01,21.10
2016,05,07,12,02,21.20
2016,05,07,12,03,21.30
2016,05,07,12,04,21.40
2016,05,07,12,05,21.40
2016,05,07,12,06,21.30
2016,05,07,12,07,21.30
2016,05,07,12,08,21.20
2016,05,07,12,09,21.20
2016,05,07,12,10,21.20
2016,05,07,12,11,21.20
2016,05,07,12,12,21.20
2016,05,07,12,13,21.10
2016,05,07,12,14,21.10
2016,05,07,12,15,21.10
2016,05,07,12,16,21.00
2016,05,07,12,17,20.90
2016,05,07,12,18,20.80
2016,05,07,12,19,20.70
2016,05,07,12,20,20.70
2016,05,07,12,21,20.70
2016,05,07,12,22,20.70
2016,05,07,12,23,20.60
2016,05,07,12,24,20.50
2016,05,07,12,25,20.50
2016,05,07,12,26,20.40
2016,05,07,12,27,20.30
2016,05,07,12,28,20.30
2016,05,07,12,29,20.30
2016,05,07,12,30,20.30
2016,05,07,12,31,20.30
2016,05,07,12,32,20.30
2016,05,07,12,33,20.30
2016,05,07,12,34,20.40
2016,05,07,12,35,20.50
2016,05,07,12,36,20.60
2016,05,07,12,37,20.60
2016,05,07,12,38,20.60
2016,05,07,12,39,20.60
2016,05,07,12,40,20.50
2016,05,07,12,41,20.50
2016,05,07,12,42,20.50
2016,05,07,12,43,20.50
2016,05,07,12,44,20.60
2016,05,07,12,45,20.60
2016,05,07,12,46,20.70
2016,05,07,12,47,20.80
2016,05,07,12,48,20.80
2016,05,07,12,49,20.90
2016,05,07,12,50,21.00
2016,05,07,12,51,21.00
2016,05,07,12,52,21.10
2016,05,07,12,53,21.10
2016,05,07,12,54,21.20
2016,05,07,12,55,21.30
2016,05,07,12,56,21.30
2016,05,07,12,57,21.40
2016,05,07,12,58,21.50
2016,05,07,12,59,21.60
2016,05,07,13,00,21.70
2016,05,07,13,01,21.80
2016,05,07,13,02,21.90
2016,05,07,13,03,22.00
2016,05,07,13,04,22.10
2016,05,07,13,05,22.20
2016,05,07,13,06,22.20
2016,05,07,13,07,22.30
2016,05,07,13,08,22.40
2016,05,07,13,09,22.40
2016,05,07,13,10,22.50
2016,05,07,13,11,22.50
2016,05,07,13,12,22.50
2016,05,07,13,13,22.50
2016,05,07,13,14,22.40
2016,05,07,13,15,22.40
2016,05,07,13,16,22.30
2016,05,07,13,17,22.30
2016,05,07,13,18,22.40
2016,05,07,13,19,22.40
2016,05,07,13,20,22.40
2016,05,07,13,21,22.50
2016,05,07,13,22,22.60
2016,05,07,13,23,22.70
2016,05,07,13,24,22.70
2016,05,07,13,25,22.80
2016,05,07,13,26,22.80
2016,05,07,13,27,22.80
2016,05,07,13,28,22.80
2016,05,07,13,29,22.90
2016,05,07,13,30,22.90
2016,05,07,13,31,22.90
2016,05,07,13,32,22.80
2016,05,07,13,33,22.80
2016,05,07,13,34,22.60
2016,05,07,13,35,22.40
2016,05,07,13,36,22.20
2016,05,07,13,37,22.00
2016,05,07,13,38,21.80
2016,05,07,13,39,21.70
2016,05,07,13,40,21.60
2016,05,07,13,41,21.50
2016,05,07,13,42,21.40
2016,05,07,13,43,21.40
2016,05,07,13,44,21.30
2016,05,07,13,45,21.30
2016,05,07,13,46,21.30
2016,05,07,13,47,21.30
2016,05,07,13,48,21.30
2016,05,07,13,49,21.40
2016,05,07,13,50,21.40
2016,05,07,13,51,21.40
2016,05,07,13,52,21.40
2016,05,07,13,53,21.50
2016,05,07,13,54,21.50
2016,05,07,13,55,21.60
2016,05,07,13,56,21.60
2016,05,07,13,57,21.60
2016,05,07,13,58,21.60
2016,05,07,13,59,21.60
2016,05,07,14,00,21.60
2016,05,07,14,01,21.60
2016,05,07,14,02,21.60
2016,05,07,14,03,21.60
2016,05,07,14,04,21.70
2016,05,07,14,05,21.80
2016,05,07,14,06,21.80
2016,05,07,14,07,21.90
2016,05,07,14,08,21.90
2016,05,07,14,09,22.00
2016,05,07,14,10,22.00
2016,05,07,14,11,22.10
2016,05,07,14,12,22.10
2016,05,07,14,13,22.20
2016,05,07,14,14,22.30
2016,05,07,14,15,22.50
2016,05,07,14,16,22.60
2016,05,07,14,17,22.70
2016,05,07,14,18,22.80
2016,05,07,14,19,22.80
2016,05,07,14,20,22.80
2016,05,07,14,21,22.80
2016,05,07,14,22,22.80
2016,05,07,14,23,22.80
2016,05,07,14,24,22.90
2016,05,07,14,25,23.00
2016,05,07,14,26,23.10
2016,05,07,14,27,23.20
2016,05,07,14,28,23.30
2016,05,07,14,29,23.40
2016,05,07,14,30,23.70
2016,05,07,14,31,24.00
2016,05,07,14,32,24.40
2016,05,07,14,33,24.70
2016,05,07,14,34,24.90
2016,05,07,14,35,25.10
2016,05,07,14,36,25.30
2016,05,07,14,37,25.50
2016,05,07,14,38,25.70
2016,05,07,14,39,25.80
2016,05,07,14,40,25.90
2016,05,07,14,41,26.00
2016,05,07,14,42,26.10
2016,05,07,14,43,26.20
2016,05,07,14,44,26.30
2016,05,07,14,45,26.30
2016,05,07,14,46,26.30
2016,05,07,14,47,26.20
2016,05,07,14,48,26.10
2016,05,07,14,49,26.10
2016,05,07,14,50,26.10
2016,05,07,14,51,26.10
2016,05,07,14,52,26.20
2016,05,07,14,53,26.20
2016,05,07,14,54,26.30
2016,05,07,14,55,26.30
2016,05,07,14,56,26.40
2016,05,07,14,57,26.50
2016,05,07,14,58,26.60
2016,05,07,14,59,26.70
2016,05,07,15,00,26.80
2016,05,07,15,01,26.90
2016,05,07,15,02,26.90
2016,05,07,15,03,26.80
2016,05,07,15,04,26.60
2016,05,07,15,05,26.50
2016,05,07,15,06,26.40
2016,05,07,15,07,26.30
2016,05,07,15,08,26.30
2016,05,07,15,09,26.30
2016,05,07,15,10,26.20
2016,05,07,15,11,26.20
2016,05,07,15,12,26.10
2016,05,07,15,13,26.10
2016,05,07,15,14,26.10
2016,05,07,15,15,26.00
2016,05,07,15,16,25.90
2016,05,07,15,17,25.80
2016,05,07,15,18,25.80
2016,05,07,15,19,25.70
2016,05,07,15,20,25.60
2016,05,07,15,21,25.40
2016,05,07,15,22,25.20
2016,05,07,15,23,25.10
2016,05,07,15,24,25.00
2016,05,07,15,25,24.90
2016,05,07,15,26,24.80
2016,05,07,15,27,24.70
2016,05,07,15,28,24.70
2016,05,07,15,29,24.70
2016,05,07,15,30,24.70
2016,05,07,15,31,24.60
2016,05,07,15,32,24.60
2016,05,07,15,33,24.50
2016,05,07,15,34,24.40
2016,05,07,15,35,24.40
2016,05,07,15,36,24.40
2016,05,07,15,37,24.40
2016,05,07,15,38,24.30
2016,05,07,15,39,24.30
2016,05,07,15,40,24.20
2016,05,07,15,41,24.10
2016,05,07,15,42,24.00
2016,05,07,15,43,23.90
2016,05,07,15,44,23.80
2016,05,07,15,45,23.80
2016,05,07,15,46,23.80
2016,05,07,15,47,23.80
2016,05,07,15,48,23.80
2016,05,07,15,49,23.80
2016,05,07,15,50,23.80
2016,05,07,15,51,23.90
2016,05,07,15,52,24.00
2016,05,07,15,53,24.00
2016,05,07,15,54,24.00
2016,05,07,15,55,23.90
2016,05,07,15,56,23.90
2016,05,07,15,57,23.90
2016,05,07,15,58,23.80
2016,05,07,15,59,23.80
2016,05,07,16,00,23.80
2016,05,07,16,01,23.90
2016,05,07,16,02,23.90
2016,05,07,16,03,23.90
2016,05,07,16,04,23.80
2016,05,07,16,05,23.70
2016,05,07,16,06,23.40
2016,05,07,16,07,23.20
2016,05,07,16,08,23.10
2016,05,07,16,09,22.80
2016,05,07,16,10,22.60
2016,05,07,16,11,22.40
2016,05,07,16,12,22.30
2016,05,07,16,13,22.10
2016,05,07,16,14,22.00
2016,05,07,16,15,22.00
2016,05,07,16,16,21.80
2016,05,07,16,17,21.70
2016,05,07,16,18,21.60
2016,05,07,16,19,21.50
2016,05,07,16,20,21.40
2016,05,07,16,21,21.30
2016,05,07,16,22,21.20
2016,05,07,16,23,21.10
2016,05,07,16,24,21.00
2016,05,07,16,25,20.80
2016,05,07,16,26,20.70
2016,05,07,16,27,20.60
2016,05,07,16,28,20.50
2016,05,07,16,29,20.40
2016,05,07,16,30,20.30
2016,05,07,16,31,20.20
2016,05,07,16,32,20.10
2016,05,07,16,33,20.10
2016,05,07,16,34,20.00
2016,05,07,16,35,19.90
2016,05,07,16,36,19.90
2016,05,07,16,37,19.90
2016,05,07,16,38,19.80
2016,05,07,16,39,19.80
2016,05,07,16,40,19.90
2016,05,07,16,41,19.90
2016,05,07,16,42,20.00
2016,05,07,16,43,20.10
2016,05,07,16,44,20.20
2016,05,07,16,45,20.40
2016,05,07,16,46,20.50
2016,05,07,16,47,20.60
2016,05,07,16,48,20.60
2016,05,07,16,49,20.60
2016,05,07,16,50,20.60
2016,05,07,16,51,20.60
2016,05,07,16,52,20.60
2016,05,07,16,53,20.70
2016,05,07,16,54,20.70
2016,05,07,16,55,20.60
2016,05,07,16,56,20.60
2016,05,07,16,57,20.70
2016,05,07,16,58,20.70
2016,05,07,16,59,20.70
2016,05,07,17,00,20.70
2016,05,07,17,01,20.60
2016,05,07,17,02,20.60
2016,05,07,17,03,20.50
2016,05,07,17,04,20.40
2016,05,07,17,05,20.30
2016,05,07,17,06,20.20
2016,05,07,17,07,20.20
2016,05,07,17,08,20.00
2016,05,07,17,09,19.80
2016,05,07,17,10,19.60
2016,05,07,17,11,19.40
2016,05,07,17,12,19.10
2016,05,07,17,13,18.90
2016,05,07,17,14,18.80
2016,05,07,17,15,18.70
2016,05,07,17,16,18.60
2016,05,07,17,17,18.50
2016,05,07,17,18,18.40
2016,05,07,17,19,18.30
2016,05,07,17,20,18.20
2016,05,07,17,21,18.20
2016,05,07,17,22,18.20
2016,05,07,17,23,18.10